Weather History for PABA - February, 2013

Change the Weather History Date:

Monday, February 25, 2013

  Actual Average Record
Temperature  
Mean Temperature -17 °F -  
Max Temperature -14 °F -5 °F 33 °F (2011)
Min Temperature -20 °F -17 °F -31 °F (2012)
Degree Days  
Heating Degree Days 82    
Moisture  
Dew Point -22 °F    
Average Humidity 78    
Maximum Humidity 84    
Minimum Humidity 76    
Precipitation  
Precipitation 0.00 in - - ()
Sea Level Pressure  
Sea Level Pressure 30.12 in    
Wind  
Wind Speed 22 mph (East)    
Max Wind Speed 25 mph    
Max Gust Speed -    
Visibility 2 miles    
Events      
Averages and records for this station are not official NWS values.
T = Trace of Precipitation, MM = Missing Value Source: NWS Daily Summary

Daily Weather History Graph

Daily Weather History Graph

Search for Another Location

Airport or City:

Trip Planner

Search our weather history database for the weather conditions in past years. The results will help you decide how hot, cold, wet, or windy it might be!

Date:

Astronomy

Feb. 25, 2013 Rise Set
Actual Time 8:18 AM AKST 5:17 PM AKST
Civil Twilight 7:14 AM AKST 6:21 PM AKST
Nautical Twilight 6:04 AM AKST 7:32 PM AKST
Astronomical Twilight 4:50 AM AKST 8:46 PM AKST
Moon 6:21 PM AKST (2/25) 7:27 AM AKST (2/25)
Length of Visible Light 11h 06m
Length of Day
8h 59m
Full, 100% of the Moon is Illuminated
Feb 25
Full
Mar 4
Last Quarter
Mar 11
New
Mar 19
First Quarter
Mar 27
Full

Hourly Weather History & Observations

Time (AKST) Temp. Windchill Dew Point Humidity Pressure Visibility Wind Dir Wind Speed Gust Speed Precip Events Conditions
12:01 AM -20.9 °F -50.5 °F -26.0 °F 77% 30.06 in 2.5 mi East 21.9 mph - 0.00 in   Haze
1:01 AM -20.9 °F -49.8 °F -26.0 °F 77% 30.07 in - East 20.7 mph - N/A   Unknown
1:09 AM -20.2 °F -49.5 °F -25.6 °F 76% 30.07 in 2.5 mi East 21.9 mph - N/A   Haze
1:29 AM -20.2 °F -50.1 °F -25.6 °F 76% 30.07 in 2.5 mi East 23.0 mph - N/A   Haze
2:01 AM -20.9 °F -50.5 °F -26.0 °F 77% 30.08 in 2.5 mi East 21.9 mph - N/A   Haze
2:11 AM -20.2 °F -48.9 °F -25.6 °F 76% 30.08 in 3.0 mi East 20.7 mph - N/A   Haze
3:01 AM -20.0 °F -48.0 °F -25.1 °F 78% 30.08 in 3.0 mi East 19.6 mph - N/A   Haze
4:21 AM -18.4 °F -47.1 °F -23.8 °F 76% 30.09 in 2.5 mi East 21.9 mph - N/A   Haze
4:41 AM -18.4 °F -48.3 °F -23.8 °F 76% 30.09 in 2.5 mi East 24.2 mph - N/A   Haze
5:14 AM -18.4 °F -47.7 °F -23.8 °F 76% 30.09 in 2.5 mi East 23.0 mph - N/A   Haze
6:01 AM -18.4 °F -47.1 °F -23.8 °F 76% 30.10 in 3.0 mi East 21.9 mph - N/A   Haze
7:01 AM -18.4 °F -45.9 °F -23.8 °F 76% 30.10 in 3.0 mi East 19.6 mph - N/A   Haze
7:19 AM -18.4 °F -46.5 °F -23.8 °F 76% 30.10 in 4.0 mi East 20.7 mph - N/A   Haze
7:56 AM -18.4 °F -48.3 °F -23.8 °F 76% 30.10 in 1.8 mi East 24.2 mph - N/A   Haze
8:01 AM -18.9 °F -49.6 °F -24.0 °F 78% 30.09 in 1.8 mi East 25.3 mph - N/A   Haze
8:36 AM -18.4 °F -46.5 °F -23.8 °F 76% 30.10 in 2.0 mi East 20.7 mph - N/A   Haze
8:54 AM -18.4 °F -46.5 °F -23.8 °F 76% 30.11 in 3.0 mi East 20.7 mph - N/A   Haze
9:01 AM -18.9 °F -47.2 °F -24.0 °F 78% 30.11 in 3.0 mi East 20.7 mph - N/A   Haze
9:34 AM -18.4 °F -46.5 °F -23.8 °F 76% 30.11 in 2.5 mi East 20.7 mph - N/A   Haze
11:01 AM -18.0 °F -47.2 °F -23.1 °F 78% 30.12 in 2.0 mi East 23.0 mph - N/A   Haze
11:10 AM -18.4 °F -48.3 °F -23.8 °F 76% 30.12 in 1.5 mi East 24.2 mph - N/A   Haze
12:01 PM -18.0 °F -47.8 °F -23.1 °F 78% 30.12 in 1.5 mi East 24.2 mph - N/A   Haze
1:01 PM -17.0 °F -46.4 °F -22.0 °F 78% 30.12 in 1.5 mi East 24.2 mph - N/A   Haze
2:01 PM -16.1 °F -45.2 °F -20.9 °F 79% 30.13 in 1.2 mi East 24.2 mph - N/A   Haze
3:01 PM -16.1 °F -44.6 °F -20.9 °F 79% 30.13 in 1.5 mi East 23.0 mph - N/A   Haze
4:01 PM -15.0 °F -43.7 °F -20.0 °F 78% 30.13 in 1.0 mi East 24.2 mph - N/A   Haze
4:08 PM -14.8 °F -43.5 °F -20.2 °F 77% 30.13 in 1.2 mi East 24.2 mph - N/A   Haze
5:18 PM -14.8 °F -42.4 °F -20.2 °F 77% 30.14 in 1.5 mi East 21.9 mph - N/A   Haze
5:44 PM -14.8 °F -43.5 °F -20.2 °F 77% 30.14 in 1.0 mi East 24.2 mph - N/A   Haze
5:54 PM -14.8 °F -43.5 °F -20.2 °F 77% 30.14 in 1.2 mi East 24.2 mph - N/A   Haze
6:01 PM -15.0 °F -44.3 °F -20.0 °F 78% 30.13 in 1.2 mi East 25.3 mph - N/A   Haze
6:29 PM -14.8 °F -44.0 °F -20.2 °F 77% 30.13 in 2.0 mi East 25.3 mph - N/A   Haze
7:01 PM -15.0 °F -43.7 °F -20.0 °F 78% 30.14 in 2.0 mi East 24.2 mph - N/A   Haze
8:01 PM -16.6 °F -46.4 °F -20.2 °F 84% 30.15 in 1.8 mi East 25.3 mph - N/A   Haze
8:14 PM -16.6 °F -44.8 °F -20.2 °F 84% 30.15 in 2.0 mi East 21.9 mph - N/A   Haze
9:01 PM -16.1 °F -42.8 °F -20.9 °F 79% 30.15 in 3.0 mi East 19.6 mph - N/A   Haze
9:46 PM -16.6 °F -44.8 °F -20.2 °F 84% 30.15 in 2.5 mi East 21.9 mph - N/A   Haze
10:01 PM -17.0 °F -45.2 °F -20.9 °F 82% 30.15 in 2.5 mi East 21.9 mph - N/A   Clear
11:01 PM -17.0 °F -45.2 °F -20.9 °F 82% 30.16 in 2.5 mi East 21.9 mph - N/A   Clear
11:14 PM -16.6 °F -44.8 °F -20.2 °F 84% 30.16 in 3.0 mi East 21.9 mph - N/A   Clear
11:22 PM -16.6 °F -42.9 °F -20.2 °F 84% 30.16 in 2.5 mi East 18.4 mph - N/A   Clear
11:30 PM -16.6 °F -44.1 °F -20.2 °F 84% 30.16 in 3.0 mi East 20.7 mph - N/A   Clear